Weather History for Cheyenne, WY

Change the Weather History Date:

Sunday, October 20, 2013

  Actual Average Record
Temperature  
Mean Temperature 39 °F 45 °F  
Max Temperature 46 °F 57 °F 78 °F (1950)
Min Temperature 31 °F 33 °F 13 °F (1911)
Degree Days  
Heating Degree Days 26 20  
Month to date heating degree days 430 340  
Since 1 July heating degree days 612 621  
Cooling Degree Days 0 0  
Month to date cooling degree days 0 0  
Year to date cooling degree days 520 348  
Moisture  
Dew Point 31 °F    
Average Humidity 71    
Maximum Humidity 96    
Minimum Humidity 45    
Precipitation  
Precipitation 0.01 in 0.03 in 1.09 in (1924)
Month to date precipitation 1.88 0.66  
Year to date precipitation 17.26 14.59  
Snow  
Snow T in 0.20 in 3.30 in (1906)
Month to date snowfall 10.0 3.0  
Since 1 July snowfall 10.0 4.3  
Snow Depth 0.00 in    
Sea Level Pressure  
Sea Level Pressure 30.02 in    
Wind  
Wind Speed 10 mph (North)    
Max Wind Speed 21 mph    
Max Gust Speed 28 mph    
Visibility 9 miles    
Events Rain , Snow    
T = Trace of Precipitation, MM = Missing Value Source: NWS Daily Summary

Daily Weather History Graph

Daily Weather History Graph

Search for Another Location

Airport:

Trip Planner

Search our weather history database for the weather conditions in past years. The results will help you decide how hot, cold, wet, or windy it might be!

Date:

Astronomy

Oct. 20, 2013 Rise Set
Actual Time 7:16 AM MDT 6:10 PM MDT
Civil Twilight 6:48 AM MDT 6:38 PM MDT
Nautical Twilight 6:16 AM MDT 7:10 PM MDT
Astronomical Twilight 5:44 AM MDT 7:42 PM MDT
Moon 7:19 PM MDT (10/20) 8:57 AM MDT (10/20)
Length of Visible Light 11h 49m
Length of Day
10h 53m
Full, 97% of the Moon is Illuminated
Oct 20
Full
Oct 26
Last Quarter
Nov 3
New
Nov 9
First Quarter
Nov 17
Full

Hourly Weather History & Observations

Time (MDT) Temp. Windchill Dew Point Humidity Pressure Visibility Wind Dir Wind Speed Gust Speed Precip Events Conditions
12:53 AM 44.1 °F 37.7 °F 25.0 °F 47% 29.84 in 10.0 mi WNW 12.7 mph - N/A   Clear
1:53 AM 44.1 °F 42.5 °F 25.0 °F 47% 29.82 in 10.0 mi NNW 3.5 mph - N/A   Clear
2:53 AM 44.1 °F - 26.1 °F 49% 29.81 in 10.0 mi Calm Calm - N/A   Clear
3:53 AM 41.0 °F 35.8 °F 28.0 °F 60% 29.82 in 10.0 mi North 8.1 mph - N/A   Clear
4:53 AM 39.9 °F 34.5 °F 28.9 °F 65% 29.82 in 10.0 mi North 8.1 mph - N/A   Clear
5:53 AM 39.9 °F 33.4 °F 28.9 °F 65% 29.85 in 10.0 mi North 10.4 mph - N/A   Scattered Clouds
6:53 AM 39.0 °F 30.3 °F 30.9 °F 73% 29.89 in 10.0 mi North 16.1 mph 23.0 mph N/A   Overcast
7:43 AM 35.6 °F 25.2 °F 33.8 °F 93% 29.99 in 9.0 mi North 18.4 mph 24.2 mph 0.00 in Rain Light Rain
7:53 AM 35.1 °F 24.5 °F 33.1 °F 92% 29.97 in 7.0 mi North 18.4 mph 25.3 mph 0.00 in Rain Light Rain
8:40 AM 33.8 °F 25.3 °F 32.0 °F 93% 30.03 in 2.0 mi North 11.5 mph 21.9 mph 0.00 in Snow Light Snow
8:53 AM 34.0 °F 25.0 °F 32.0 °F 92% 29.97 in 4.0 mi North 12.7 mph 19.6 mph 0.00 in Snow Light Snow
9:20 AM 35.6 °F 27.1 °F 32.0 °F 87% 30.04 in 7.0 mi North 12.7 mph 20.7 mph 0.00 in   Overcast
9:27 AM 35.6 °F 25.9 °F 33.8 °F 93% 30.04 in 6.0 mi NNW 16.1 mph 23.0 mph 0.00 in   Overcast
9:45 AM 35.6 °F 27.5 °F 33.8 °F 93% 30.04 in 5.0 mi North 11.5 mph 19.6 mph 0.00 in Snow Light Snow
9:53 AM 35.1 °F 26.4 °F 33.1 °F 92% 30.00 in 7.0 mi NNW 12.7 mph - 0.01 in Snow Light Snow
10:04 AM 35.6 °F 27.1 °F 32.0 °F 87% 30.04 in 10.0 mi NNW 12.7 mph 23.0 mph 0.00 in   Overcast
10:53 AM 37.0 °F 27.4 °F 32.0 °F 82% 29.99 in 10.0 mi NNW 17.3 mph 25.3 mph 0.00 in   Mostly Cloudy
11:53 AM 39.0 °F 30.3 °F 30.0 °F 70% 30.00 in 10.0 mi North 16.1 mph 23.0 mph N/A   Overcast
12:09 PM 35.6 °F 28.0 °F 30.2 °F 81% 30.05 in 5.0 mi NNW 10.4 mph - 0.00 in Snow Light Snow
12:36 PM 39.2 °F 32.0 °F 28.4 °F 65% 30.04 in 10.0 mi North 11.5 mph 19.6 mph 0.00 in   Overcast
12:53 PM 39.9 °F 31.4 °F 28.9 °F 65% 29.99 in 10.0 mi North 16.1 mph 24.2 mph 0.00 in   Overcast
1:16 PM 37.4 °F 30.3 °F 30.2 °F 75% 30.04 in 5.0 mi North 10.4 mph 21.9 mph 0.00 in Snow Light Snow
1:53 PM 37.0 °F 28.9 °F 32.0 °F 82% 29.99 in 9.0 mi NNW 12.7 mph - 0.00 in Rain Light Rain
2:31 PM 39.2 °F 32.5 °F 33.8 °F 81% 30.02 in 10.0 mi NNW 10.4 mph - 0.00 in   Mostly Cloudy
2:53 PM 39.9 °F 33.9 °F 32.0 °F 73% 29.98 in 10.0 mi NNW 9.2 mph - 0.00 in   Mostly Cloudy
3:14 PM 41.0 °F 36.4 °F 32.0 °F 70% 30.02 in 10.0 mi NNE 6.9 mph - N/A   Mostly Cloudy
3:53 PM 39.9 °F 32.5 °F 33.1 °F 77% 29.99 in 10.0 mi NNE 12.7 mph - 0.00 in Rain Light Rain
4:53 PM 39.0 °F 32.8 °F 33.1 °F 79% 30.01 in 10.0 mi NNE 9.2 mph - 0.00 in   Overcast
5:53 PM 35.1 °F 26.9 °F 32.0 °F 89% 30.06 in 10.0 mi North 11.5 mph 19.6 mph 0.00 in   Overcast
6:02 PM 35.6 °F 29.2 °F 32.0 °F 87% 30.07 in 10.0 mi North 8.1 mph - 0.00 in   Overcast
6:53 PM 34.0 °F 28.0 °F 32.0 °F 92% 30.09 in 10.0 mi North 6.9 mph - 0.00 in   Scattered Clouds
7:53 PM 33.1 °F 28.7 °F 30.9 °F 92% 30.14 in 10.0 mi NW 4.6 mph - N/A   Mostly Cloudy
8:53 PM 32.0 °F - 30.0 °F 92% 30.17 in 10.0 mi North - - N/A   Clear
9:21 PM 32.0 °F - 30.2 °F 93% 30.12 in 10.0 mi North - - N/A   Mostly Cloudy
9:53 PM 32.0 °F - 30.0 °F 92% 30.17 in 10.0 mi Calm Calm - N/A   Overcast
10:13 PM 33.8 °F 30.8 °F 30.2 °F 87% 30.13 in 10.0 mi NNW 3.5 mph - N/A   Overcast
10:53 PM 33.1 °F 27.7 °F 30.9 °F 92% 30.16 in 10.0 mi NNE 5.8 mph - N/A   Overcast
11:04 PM 33.8 °F 28.6 °F 30.2 °F 87% 30.13 in 10.0 mi NNE 5.8 mph - N/A   Mostly Cloudy
11:14 PM 32.0 °F 28.7 °F 30.2 °F 93% 30.13 in 10.0 mi North 3.5 mph - N/A   Mostly Cloudy
11:53 PM 32.0 °F 28.7 °F 30.0 °F 92% 30.15 in 10.0 mi NNW 3.5 mph - N/A   Mostly Cloudy